Regional Weather Roundup
Issued by NWS Kansas City/Pleasant Hill, MO

Home | Current Version | Previous Version | Graphics & Text | Print | Product List | Glossary Off
Versions: 1 2 3 4 5 6 7 8 9 10 11 12 13 14 15 16 17 18 19 20 21 22 23 24 25 26 27 28 29 30 31 32 33 34 35 36 37 38 39 40 41 42 43 44 45 46 47 48 49 50

000
ASUS43 KEAX 220410
RWREAX

WEATHER ROUNDUP FOR EASTERN KANSAS AND NORTHWEST MISSOURI
NATIONAL WEATHER SERVICE KANSAS CITY/PLEASANT HILL MO
1000 PM CST TUE NOV 21 2017

KSZ040-057-103>105-MOZ028-029-037-043-220500-
...KANSAS CITY METROPOLITAN AREA...

CITY           SKY/WX    TMP DP  RH WIND       PRES   REMARKS
K.C. INTL      CLEAR     27  15  61 NW9       30.39R WCI  18
K.C. DOWNTOWN  CLEAR     31  15  52 NW6       30.39R WCI  25
LEES SUMMIT    CLEAR     30  16  56 N14       30.37S WCI  19
OLATHE - IXD   CLEAR     27  17  66 NW10      30.39R WCI  17
OLATHE - OJC   CLEAR     29  15  56 N12       30.37R WCI  19
LAWRENCE       CLEAR     24  16  71 NW8       30.40S WCI  15

$$

MOZ001>008-011>017-020>025-030>033-038>040-044>046-053-054-220500-
...NORTHERN AND CENTRAL MISSOURI...

CITY           SKY/WX    TMP DP  RH WIND       PRES   REMARKS
ST. JOSEPH     CLOUDY    26  14  60 N9        30.41R WCI  17
MOSBY          CLEAR     30  18  59 NW6       30.40R WCI  24
WARRENSBURG    CLEAR     30  19  64 NW6       30.37S WCI  24
WHITEMAN AFB   CLEAR     30  17  59 NW6       30.32R WCI  24
CLINTON        CLEAR     28  19  69 MISG      30.36R
SEDALIA        CLEAR     32  21  64 N10       30.35R WCI  24
WARSAW         NOT AVBL
CHILLICOTHE      N/A     28  16  60 NW7       30.38R WCI  21
KIRKSVILLE     CLEAR     27  18  69 N8        30.32S WCI  19

$$

MOZ041-047>049-056>058-063>065-088>090-097-220500-
...EASTERN AND SOUTHERN MISSOURI...

CITY           SKY/WX    TMP DP  RH WIND       PRES   REMARKS
ST. LOUIS INTL CLEAR     32  21  64 NW9       30.28R WCI  24
SPIRIT OF STL  CLEAR     33  20  58 NW7       30.30R WCI  27
COLUMBIA       CLEAR     31  19  61 NW12      30.32R WCI  22
JEFFERSON CITY CLEAR     34  18  52 NW5       30.34R WCI  30
ROLLA          CLEAR     32  19  58 N14G24    30.28R WCI  22
OSAGE BEACH    CLEAR     33  18  53 VRB7      30.33R WCI  27
SPRINGFIELD    CLEAR     36  20  52 N15       30.27R WCI  27
BRANSON        CLEAR     39  19  45 N12       30.26R WCI  32
JOPLIN         CLEAR     34  20  56 N15       30.33R WCI  24
WEST PLAINS    CLEAR     42  22  44 N12G20    30.23R

$$

IAZ060-094-KSZ022-034>040-054-083-096-NEZ052-066-093-220500-
...KANSAS...SOUTHEAST NEBRASKA AND IOWA...

CITY           SKY/WX    TMP DP  RH WIND       PRES   REMARKS
TOPEKA         CLOUDY    26  15  63 NW6       30.41S WCI  19
MANHATTAN      CLOUDY    26  13  57 NW3       30.42F
EMPORIA        CLOUDY    26  14  60 N6        30.39S WCI  19
CHANUTE        CLEAR     32  17  54 N14       30.39R WCI  22
WICHITA        CLOUDY    33  14  45 N14       30.38S WCI  23
OMAHA          CLOUDY    22  11  62 CALM      30.41S
LINCOLN        CLOUDY    22  12  65 MISG      30.43R
FALLS CITY     CLOUDY    23  13  65 NW6       30.40S WCI  16
LAMONI         CLOUDY    24  14  65 NW12      30.34R WCI  13
DES MOINES     CLEAR     25  12  58 W8        30.36R WCI  16

$$




USA.gov is the U.S. government's official web portal to all federal, state and local government web resources and services.